2023/02/15 00:00:00,30.3,-3.8
2023/02/15 00:10:00,30.2,-3.9
2023/02/15 00:20:00,30.4,-3.9
2023/02/15 00:30:00,30.6,-3.9
2023/02/15 00:40:00,30.5,-3.7
2023/02/15 00:50:00,30.7,-3.9
2023/02/15 01:00:00,31.3,-4.1
2023/02/15 01:10:00,31.3,-4.1
2023/02/15 01:20:00,31.4,-4.3
2023/02/15 01:30:00,31.4,-4.4
2023/02/15 01:40:00,31.3,-4.1
2023/02/15 01:50:00,31.3,-4.2
2023/02/15 02:00:00,31.2,-4.3
2023/02/15 02:10:00,31.3,-4.4
2023/02/15 02:20:00,31.3,-4.6
2023/02/15 02:30:00,31.3,-4.6
2023/02/15 02:40:00,31.3,-4.5
2023/02/15 02:50:00,31.1,-4.4
2023/02/15 03:00:00,31.1,-4.5
2023/02/15 03:10:00,31.0,-4.6
2023/02/15 03:20:00,31.0,-4.6
2023/02/15 03:30:00,30.9,-4.6
2023/02/15 03:40:00,30.8,-4.5
2023/02/15 03:50:00,30.8,-4.7
2023/02/15 04:00:00,30.9,-4.6
2023/02/15 04:10:00,31.1,-4.8
2023/02/15 04:20:00,31.2,-4.6
2023/02/15 04:30:00,31.1,-4.6
2023/02/15 04:40:00,31.2,-4.6
2023/02/15 04:50:00,31.1,-4.6
2023/02/15 05:00:00,31.1,-4.7
2023/02/15 05:10:00,31.2,-4.6
2023/02/15 05:20:00,31.2,-4.5
2023/02/15 05:30:00,31.2,-4.3
2023/02/15 05:40:00,31.1,-4.0
2023/02/15 05:50:00,31.1,-4.6
2023/02/15 06:00:00,31.0,-4.3
2023/02/15 06:10:00,31.1,-4.4
2023/02/15 06:20:00,31.1,-4.3
2023/02/15 06:30:00,31.1,-4.4
2023/02/15 06:40:00,31.1,-4.3
2023/02/15 06:50:00,31.0,-4.4
2023/02/15 07:00:00,31.2,-4.5
2023/02/15 07:10:00,31.1,-4.5
2023/02/15 07:20:00,31.1,-4.2
2023/02/15 07:30:00,31.0,-4.1
2023/02/15 07:40:00,30.9,-4.2
2023/02/15 07:50:00,30.9,-4.3
2023/02/15 08:00:00,30.9,-4.0
2023/02/15 08:10:00,30.9,-4.0
2023/02/15 08:20:00,31.1,-4.3
2023/02/15 08:30:00,31.4,-4.3
2023/02/15 08:40:00,32.2,-4.1
2023/02/15 08:50:00,32.8,-3.9
2023/02/15 09:00:00,32.9,-3.6
2023/02/15 09:10:00,33.1,-2.9
2023/02/15 09:20:00,33.1,-2.8
2023/02/15 09:30:00,33.0,-3.2
2023/02/15 09:40:00,32.8,-2.3
2023/02/15 09:50:00,32.8,-2.2
2023/02/15 10:00:00,32.7,-1.9
2023/02/15 10:10:00,32.6,-2.1
2023/02/15 10:20:00,32.7,-2.7
2023/02/15 10:30:00,33.2,-3.2
2023/02/15 10:40:00,33.8,-3.1
2023/02/15 10:50:00,33.8,-2.8
2023/02/15 11:00:00,33.7,-2.4
2023/02/15 11:10:00,33.6,-2.9
2023/02/15 11:20:00,34.0,-3.2
2023/02/15 11:30:00,33.9,-2.9
2023/02/15 11:40:00,34.3,-2.8
2023/02/15 11:50:00,34.2,-2.8
2023/02/15 12:00:00,34.1,-2.7
2023/02/15 12:10:00,34.1,-2.8
2023/02/15 12:20:00,34.0,-2.4
2023/02/15 12:30:00,34.0,-2.4
2023/02/15 12:40:00,33.9,-2.8
2023/02/15 12:50:00,33.8,-2.4
2023/02/15 13:00:00,33.9,-2.2
2023/02/15 13:10:00,34.2,-2.1
2023/02/15 13:20:00,34.1,-2.6
2023/02/15 13:30:00,34.4,-2.5
2023/02/15 13:40:00,34.4,-2.8
2023/02/15 13:50:00,34.3,-2.8
2023/02/15 14:00:00,34.4,-3.0
2023/02/15 14:10:00,34.6,-2.7
2023/02/15 14:20:00,34.7,-2.0
2023/02/15 14:30:00,34.7,-2.1
2023/02/15 14:40:00,34.6,-2.7
2023/02/15 14:50:00,34.7,-2.9
2023/02/15 15:00:00,35.0,-2.5
2023/02/15 15:10:00,35.1,-2.6
2023/02/15 15:20:00,35.1,-2.7
2023/02/15 15:30:00,35.1,-2.9
2023/02/15 15:40:00,35.0,-2.6
2023/02/15 15:50:00,34.8,-2.4
2023/02/15 16:00:00,34.7,-2.9
2023/02/15 16:10:00,34.9,-3.2
2023/02/15 16:20:00,35.3,-2.7
2023/02/15 16:30:00,35.3,-3.1
2023/02/15 16:40:00,35.3,-3.0
2023/02/15 16:50:00,35.5,-3.2
2023/02/15 17:00:00,35.5,-3.4
2023/02/15 17:10:00,35.5,-3.1
2023/02/15 17:20:00,35.6,-3.5
2023/02/15 17:30:00,35.6,-3.4
2023/02/15 17:40:00,35.7,-3.4
2023/02/15 17:50:00,35.7,-3.4
2023/02/15 18:00:00,35.6,-3.8
2023/02/15 18:10:00,35.9,-3.4
2023/02/15 18:20:00,35.8,-3.7
2023/02/15 18:30:00,35.6,-3.6
2023/02/15 18:40:00,35.8,-3.6
2023/02/15 18:50:00,36.2,-4.1
2023/02/15 19:00:00,36.7,-3.9
2023/02/15 19:10:00,36.6,-4.0
2023/02/15 19:20:00,36.6,-3.8
2023/02/15 19:30:00,36.7,-3.9
2023/02/15 19:40:00,36.5,-3.9
2023/02/15 19:50:00,36.5,-4.1
2023/02/15 20:00:00,36.8,-4.0
2023/02/15 20:10:00,37.1,-4.2
2023/02/15 20:20:00,37.1,-3.9
2023/02/15 20:30:00,37.5,-3.9
2023/02/15 20:40:00,37.6,-3.8
2023/02/15 20:50:00,37.5,-4.0
2023/02/15 21:00:00,37.7,-3.7
2023/02/15 21:10:00,38.1,-3.9
2023/02/15 21:20:00,38.2,-3.8
2023/02/15 21:30:00,38.3,-3.7
2023/02/15 21:40:00,38.0,-3.6
2023/02/15 21:50:00,38.1,-3.7
2023/02/15 22:00:00,38.0,-4.1
2023/02/15 22:10:00,38.1,-3.5
2023/02/15 22:20:00,38.1,-3.7
2023/02/15 22:30:00,38.0,-3.7
2023/02/15 22:40:00,37.9,-3.7
2023/02/15 22:50:00,38.0,-3.6
2023/02/15 23:00:00,38.2,-3.6
2023/02/15 23:10:00,38.1,-3.5
2023/02/15 23:20:00,38.1,-3.8
2023/02/15 23:30:00,38.0,-3.5
2023/02/15 23:40:00,37.9,-3.7
2023/02/15 23:50:00,37.7,-3.7
